FW8012 Weather Reports


time (UTC)temp
F
wind
direction
speed
knots
gust
knots
rain 1hr
in
rain 24hr
in
rain mn
in
humidity
%
barometer
mb
20260507175922 55 292 7.0 10.4 0.00 0.00 0.00 100 1044.7
20260507174925 54 270 6.1 7.8 0.00 0.00 0.00 100 1044.7
20260507173924 55 315 3.5 5.2 0.00 0.00 0.00 100 1044.7
20260507172923 54 360 1.7 1.7 0.00 0.00 0.00 100 1045.0
20260507170923 55 293 2.6 3.5 0.00 0.00 0.00 100 1045.0
20260507165924 54 304 1.7 2.6 0.00 0.00 0.00 100 1045.0
20260507164923 54 270 1.7 1.7 0.00 0.00 0.00 100 1045.4
20260507163924 54 292 0.9 0.9 0.00 0.00 0.00 100 1045.4
20260507162023 53 315 3.5 3.5 0.00 0.00 0.00 100 1045.4
20260507160022 53 281 2.6 6.1 0.00 0.00 0.00 100 1045.7
20260507155024 52 297 0.9 1.7 0.00 0.00 0.00 100 1045.4
20260507154024 52 315 2.6 3.5 0.00 0.00 0.00 100 1045.4
20260507153025 52 281 1.7 1.7 0.00 0.00 0.00 100 1045.4
20260507152024 51 315 1.7 1.7 0.00 0.00 0.00 100 1045.7
20260507151122 51 292 1.7 2.6 0.00 0.00 0.00 100 1045.7
20260507144223 50 315 3.5 5.2 0.00 0.00 0.00 100 1045.7
20260507143223 50 315 4.3 6.1 0.00 0.00 0.00 100 1045.6
20260507142223 50 292 1.7 1.7 0.00 0.00 0.00 100 1045.7
20260507140226 50 315 3.5 3.5 0.00 0.00 0.00 100 1045.7
20260507135322 50 270 0.9 0.9 0.00 0.00 0.00 100 1045.7
20260507134323 50 270 1.7 1.7 0.00 0.00 0.00 100 1045.7
20260507133423 50 247 1.7 2.6 0.00 0.00 0.00 100 1045.7
20260507132422 50 292 2.6 3.5 0.00 0.00 0.00 100 1045.7
20260507131424 49 317 3.5 6.1 0.00 0.00 0.00 100 1045.7
20260507130425 48 299 1.7 3.5 0.00 0.00 0.00 100 1045.7
20260507125423 48 310 1.7 3.5 0.00 0.00 0.00 100 1045.4
20260507121523 47 304 2.6 5.2 0.00 0.00 0.00 100 1045.4
20260507114524 46 309 2.6 3.5 0.00 0.00 0.00 100 1045.4
20260507112525 44 297 0.9 3.5 0.00 0.00 0.00 100 1045.0
20260507111526 43 302 0.0 1.7 0.00 0.00 0.00 100 1045.0
20260507105722 42 315 0.0 0.0 0.00 0.00 0.00 100 1045.0
20260507104725 41 315 0.0 0.0 0.00 0.00 0.00 100 1044.6
20260507103823 41 315 0.0 0.0 0.00 0.00 0.00 100 1044.7
20260507102823 41 315 0.0 0.0 0.00 0.00 0.00 100 1044.7
20260507101824 41 315 0.0 0.0 0.00 0.00 0.00 100 1045.0
20260507100825 41 315 0.0 0.0 0.00 0.00 0.00 100 1045.0
20260507095923 41 315 0.0 0.0 0.00 0.00 0.00 100 1044.7
20260507094923 42 315 0.0 0.0 0.00 0.00 0.00 100 1045.0
20260507093925 42 315 0.0 0.0 0.00 0.00 0.00 100 1045.0
20260507093022 42 315 0.0 0.0 0.00 0.00 0.00 100 1045.0
20260507092924 42 315 0.0 0.0 0.00 0.00 0.00 100 1045.0
20260507092022 43 315 0.0 0.0 0.00 0.00 0.00 100 1044.7
20260507091023 43 315 0.0 1.7 0.00 0.00 0.00 100 1044.7
20260507090028 44 315 0.0 0.0 0.00 0.00 0.00 100 1044.6
20260507085022 44 315 0.0 1.7 0.00 0.00 0.00 100 1044.6
20260507084025 44 315 0.9 1.7 0.00 0.00 0.00 100 1044.7
20260507082223 45 315 0.0 0.0 0.00 0.00 0.00 100 1044.6
20260507081226 45 315 0.9 1.7 0.00 0.00 0.00 100 1044.6
20260507080223 45 360 0.9 1.7 0.00 0.00 0.00 100 1044.3
20260507075223 45 315 1.7 2.6 0.00 0.00 0.00 100 1044.6
20260507074224 44 270 0.0 0.0 0.00 0.00 0.00 100 1044.3
20260507073223 44 270 0.0 0.0 0.00 0.00 0.00 100 1044.0
20260507072224 45 270 0.0 0.0 0.00 0.00 0.00 100 1044.0
20260507071225 45 270 0.0 0.0 0.00 0.00 0.00 100 1043.9
20260507070323 45 315 0.0 0.0 0.00 0.00 0.00 100 1044.3
20260507065323 46 293 0.9 1.7 0.00 0.00 0.00 100 1044.3
20260507063423 46 317 1.7 4.3 0.00 0.00 0.00 100 1044.3
20260507061523 46 310 5.2 9.6 0.00 0.00 0.00 100 1044.0
20260507060622 46 315 5.2 7.8 0.00 0.00 0.00 100 1044.0
20260507055623 47 286 3.5 6.1 0.00 0.00 0.00 100 1044.0
20260507054722 46 309 2.6 4.3 0.00 0.00 0.00 100 1043.9
20260507053723 46 310 0.9 2.6 0.00 0.00 0.00 100 1043.9
20260507053623 46 328 2.6 7.0 0.00 0.00 0.00 100 1044.0
20260507053523 46 315 1.7 3.5 0.00 0.00 0.00 100 1043.9
20260507052523 46 315 5.2 6.1 0.00 0.00 0.00 100 1043.9
20260507051622 47 296 0.0 1.7 0.00 0.00 0.00 100 1043.6
20260507050623 47 287 0.9 1.7 0.00 0.00 0.00 100 1043.6
20260507045722 47 307 1.7 3.5 0.00 0.00 0.00 100 1044.0
20260507044724 47 311 2.6 4.3 0.00 0.00 0.00 100 1043.9
20260507042722 47 315 3.5 6.1 0.00 0.00 0.00 100 1043.9
20260507041738 47 300 1.7 1.7 0.00 0.00 0.00 100 1043.9
20260507035817 47 280 1.7 3.5 0.00 0.00 0.00 100 1044.0
20260507034817 48 270 4.3 6.1 0.00 0.00 0.00 100 1044.0
20260507033817 48 292 0.9 3.5 0.00 0.00 0.00 100 1043.9
20260507031818 48 292 1.7 4.3 0.00 0.00 0.00 100 1044.0
20260507025917 49 308 4.3 6.1 0.00 0.00 0.00 100 1044.0
20260507025816 49 312 3.5 6.1 0.00 0.00 0.00 100 1044.0
20260507024817 49 285 5.2 9.6 0.00 0.00 0.00 100 1043.9
20260507023817 49 300 4.3 5.2 0.00 0.00 0.00 100 1043.9
20260507022916 49 309 5.2 7.8 0.00 0.00 0.00 100 1043.9
20260507020916 51 315 4.3 7.0 0.00 0.00 0.00 100 1043.9
20260507014017 52 274 5.2 7.0 0.00 0.00 0.00 100 1043.6
20260507013017 52 292 4.3 5.2 0.00 0.00 0.00 100 1043.6
20260507012018 52 315 1.7 3.5 0.00 0.00 0.00 100 1043.3
20260507011116 53 304 1.7 2.6 0.00 0.00 0.00 100 1043.4
20260507005120 54 315 0.9 0.9 0.00 0.00 0.00 100 1043.3
20260507004120 54 281 1.7 1.7 0.00 0.00 0.00 100 1043.3
20260507000219 57 225 6.1 6.1 0.00 0.00 0.00 100 1042.9
20260506235221 58 265 3.5 4.3 0.00 0.00 0.00 100 1042.9
20260506234320 58 296 7.0 7.8 0.00 0.00 0.00 100 1042.9
20260506233320 58 307 4.3 5.2 0.00 0.00 0.00 100 1042.6
20260506232321 57 225 4.3 4.3 0.00 0.00 0.00 100 1042.6
20260506231320 56 208 0.9 1.7 0.00 0.00 0.00 100 1042.6
20260506230321 57 270 0.9 0.9 0.00 0.00 0.00 100 1042.6
20260506225419 56 270 0.9 1.7 0.00 0.00 0.00 100 1042.6
20260506224420 56 225 1.7 3.5 0.00 0.00 0.00 100 1042.5
20260506223434 56 238 1.7 3.5 0.00 0.00 0.00 100 1042.5
20260506222519 55 202 1.7 3.5 0.00 0.00 0.00 100 1042.7
20260506220519 57 180 4.3 6.1 0.00 0.00 0.00 100 1042.9
20260506215618 56 202 1.7 1.7 0.00 0.00 0.00 100 1042.9
20260506214620 56 180 3.5 3.5 0.00 0.00 0.00 100 1042.9
20260506213620 56 203 3.5 6.1 0.00 0.00 0.00 100 1043.3
20260506212619 57 180 6.1 7.8 0.00 0.00 0.00 100 1043.3
20260506211619 57 180 2.6 2.6 0.00 0.00 0.00 100 1043.3
20260506205620 0 0 0.0 0.0 0.00 0.00 0.00 100
20260506202721 57 180 0.0 0.0 0.00 0.00 0.00 100 1043.9
20260506201719 56 180 0.0 0.0 0.00 0.00 0.00 100 1043.9
20260506200718 56 180 0.0 0.0 0.00 0.00 0.00 100 1043.9
20260506195718 0 0 0.0 0.0 0.00 0.00 0.00 100
20260506194733 0 0 0.0 0.0 0.00 0.00 0.00 100
20260506193816 0 0 0.0 0.0 0.00 0.00 0.00 100
20260506192829 56 225 0.9 0.9 0.00 0.00 0.00 100 1044.7
20260506191928 57 180 3.5 3.5 0.00 0.00 0.00 100 1044.7
20260506190930 57 180 3.5 3.5 0.00 0.00 0.00 100 1044.7
20260506185927 0 0 0.0 0.0 0.00 0.00 0.00 100
20260506184943 0 0 0.0 0.0 0.00 0.00 0.00 100
20260506183927 0 0 0.0 0.0 0.00 0.00 0.00 100
20260506182926 0 0 0.0 0.0 0.00 0.00 0.00 100
20260506182024 0 0 0.0 0.0 0.00 0.00 0.00 100
20260506181026 0 0 0.0 0.0 0.00 0.00 0.00 100